GW4324 Weather Reports


time (UTC)temp
C
wind
direction
speed
KPH
gust
KPH
rain 1hr
cm
rain 24hr
cm
rain mn
cm
humidity
%
barometer
mb
20260506081031 14 116 1.6 3.2 0.00 0.00 0.00 91 1009.5
20260506080529 13 142 3.2 3.2 0.00 0.00 0.00 91 1009.5
20260506073512 13 354 0.0 3.2 0.00 0.00 0.00 93 1009.4
20260506073009 13 6 0.0 1.6 0.00 0.00 0.00 93 1009.5
20260506072506 13 135 0.0 1.6 0.00 0.00 0.00 94 1009.3
20260506072004 13 102 0.0 1.6 0.00 0.00 0.00 94 1009.5
20260506071502 13 20 1.6 3.2 0.00 0.00 0.00 94 1009.4
20260506070959 13 57 0.0 3.2 0.00 0.00 0.00 94 1009.4
20260506070456 13 131 3.2 3.2 0.00 0.00 0.00 94 1009.4
20260506062433 13 119 3.2 4.8 0.00 0.00 0.00 93 1010.0
20260506061929 13 321 0.0 1.6 0.00 0.00 0.00 94 1009.9
20260506061426 13 300 3.2 4.8 0.00 0.00 0.00 94 1009.9
20260506060924 13 25 3.2 4.8 0.00 0.00 0.00 92 1009.9
20260506060422 13 82 1.6 3.2 0.00 0.00 0.00 92 1009.8
20260506051353 13 309 0.0 1.6 0.00 0.00 0.00 93 1010.6
20260506050851 13 47 0.0 1.6 0.00 0.00 0.00 91 1010.6
20260506050348 13 22 0.0 0.0 0.00 0.00 0.00 90 1010.6
20260506044838 13 127 3.2 3.2 0.00 0.00 0.00 90 1010.8
20260506044337 13 167 1.6 4.8 0.00 0.00 0.00 90 1010.5
20260506043833 13 124 3.2 3.2 0.00 0.00 0.00 91 1010.5
20260506043331 13 80 0.0 3.2 0.00 0.00 0.00 91 1010.7
20260506042829 13 144 0.0 1.6 0.00 0.00 0.00 92 1010.7
20260506042328 13 67 1.6 3.2 0.00 0.00 0.00 89 1010.5
20260506041826 13 124 0.0 1.6 0.00 0.00 0.00 89 1010.6
20260506041323 13 147 0.0 0.0 0.00 0.00 0.00 90 1010.7
20260506040820 13 109 1.6 3.2 0.00 0.00 0.00 90 1010.5
20260506040317 13 129 0.0 3.2 0.00 0.00 0.00 91 1010.3
20260506035813 13 302 0.0 3.2 0.00 0.00 0.00 91 1010.4
20260506035311 13 50 0.0 1.6 0.00 0.00 0.00 90 1010.3
20260506034808 13 269 0.0 3.2 0.00 0.00 0.00 90 1010.6
20260506034305 14 5 0.0 0.0 0.00 0.00 0.00 87 1010.6
20260506033802 13 114 3.2 6.4 0.00 0.00 0.00 87 1010.5
20260506033259 14 157 0.0 1.6 0.00 0.00 0.00 86 1010.6
20260506032756 14 44 0.0 3.2 0.00 0.00 0.00 86 1010.6
20260506032253 15 141 0.0 3.2 0.00 0.00 0.00 85 1010.5
20260506031749 15 116 4.8 4.8 0.00 0.00 0.00 85 1010.4
20260506031247 15 164 0.0 1.6 0.00 0.00 0.00 85 1010.7
20260506030745 15 119 0.0 1.6 0.00 0.00 0.00 84 1010.8
20260506030242 15 156 0.0 3.2 0.00 0.00 0.00 86 1010.8
20260506025739 14 60 0.0 1.6 0.00 0.00 0.00 88 1010.6
20260506025235 14 321 0.0 1.6 0.00 0.00 0.00 88 1010.8
20260506024732 14 141 0.0 1.6 0.00 0.00 0.00 87 1010.8
20260506024229 14 133 3.2 3.2 0.00 0.00 0.00 88 1010.8
20260506023725 14 241 1.6 3.2 0.00 0.00 0.00 87 1010.9
20260506023222 14 147 0.0 1.6 0.00 0.00 0.00 88 1010.8
20260506022719 14 75 3.2 3.2 0.00 0.00 0.00 88 1010.7
20260506022217 14 22 0.0 3.2 0.00 0.00 0.00 88 1010.8
20260506021715 14 76 0.0 1.6 0.00 0.00 0.00 86 1010.5
20260506021211 15 44 0.0 1.6 0.00 0.00 0.00 85 1010.7
20260506020708 15 122 0.0 1.6 0.00 0.00 0.00 83 1010.7
20260506020206 15 127 3.2 3.2 0.00 0.00 0.00 82 1010.7
20260506015703 16 89 0.0 3.2 0.00 0.00 0.00 80 1010.7
20260506015201 16 65 0.0 3.2 0.00 0.00 0.00 79 1010.6
20260506014658 16 142 3.2 4.8 0.00 0.00 0.00 80 1010.6
20260506014153 16 114 1.6 3.2 0.00 0.00 0.00 81 1010.7
20260506013652 16 66 0.0 0.0 0.00 0.00 0.00 80 1010.5
20260506013148 16 53 0.0 1.6 0.00 0.00 0.00 79 1010.5
20260506012644 16 55 0.0 0.0 0.00 0.00 0.00 79 1010.6
20260506012141 16 89 0.0 1.6 0.00 0.00 0.00 79 1010.5
20260506011639 17 30 1.6 3.2 0.00 0.00 0.00 77 1010.4
20260506011135 17 47 3.2 3.2 0.00 0.00 0.00 72 1010.6
20260506010634 18 140 0.0 3.2 0.00 0.00 0.00 71 1010.4
20260506010131 18 89 0.0 0.0 0.00 0.00 0.00 71 1010.4
20260506005627 18 144 0.0 1.6 0.00 0.00 0.00 70 1010.4
20260506005124 19 160 0.0 1.6 0.00 0.00 0.00 67 1010.3
20260506004620 18 186 1.6 3.2 0.00 0.00 0.00 68 1010.5
20260506004118 18 177 1.6 1.6 0.00 0.00 0.00 69 1010.0
20260506003614 18 42 1.6 1.6 0.00 0.00 0.00 69 1010.1
20260506003110 19 65 0.0 1.6 0.00 0.00 0.00 65 1010.0
20260506002606 20 55 0.0 0.0 0.00 0.00 0.00 65 1010.0
20260506002102 20 130 1.6 3.2 0.00 0.00 0.00 64 1010.0
20260506001559 20 131 1.6 1.6 0.00 0.00 0.00 64 1009.8
20260506001056 20 119 0.0 0.0 0.00 0.00 0.00 63 1009.8
20260506000553 20 60 0.0 1.6 0.00 0.00 0.00 63 1009.7
20260506000050 20 164 0.0 0.0 0.00 0.00 0.00 62 1009.8
20260505235548 21 164 0.0 1.6 0.00 0.00 0.00 61 1009.7
20260505235045 21 177 3.2 3.2 0.00 0.00 0.00 61 1009.7
20260505234542 21 173 1.6 3.2 0.00 0.00 0.00 61 1009.7
20260505234039 21 240 0.0 3.2 0.00 0.00 0.00 62 1009.6
20260505233536 21 304 0.0 3.2 0.00 0.00 0.00 62 1009.7
20260505233034 21 318 0.0 0.0 0.00 0.00 0.00 62 1009.8
20260505232531 21 230 0.0 0.0 0.00 0.00 0.00 61 1009.4
20260505232028 21 217 0.0 0.0 0.00 0.00 0.00 60 1009.7
20260505231525 21 217 3.2 4.8 0.00 0.00 0.00 58 1009.5
20260505231024 22 244 3.2 4.8 0.00 0.00 0.00 58 1009.5
20260505230521 22 209 0.0 4.8 0.00 0.00 0.00 56 1009.5
20260505230018 22 245 0.0 6.4 0.00 0.00 0.00 55 1009.2
20260505225514 22 196 4.8 8.0 0.00 0.00 0.00 54 1009.2
20260505225010 23 215 3.2 4.8 0.00 0.00 0.00 53 1009.5
20260505224508 23 187 1.6 4.8 0.00 0.00 0.00 51 1009.4
20260505224005 23 273 4.8 8.0 0.00 0.00 0.00 51 1009.4
20260505223502 23 284 1.6 6.4 0.00 0.00 0.00 51 1009.4
20260505222958 23 299 4.8 4.8 0.00 0.00 0.00 50 1009.5
20260505222454 23 83 1.6 9.7 0.00 0.00 0.00 49 1009.3
20260505221950 23 306 8.0 9.7 0.00 0.00 0.00 47 1009.4
20260505221448 23 206 6.4 6.4 0.00 0.00 0.00 46 1009.1
20260505220944 24 5 4.8 9.7 0.00 0.00 0.00 45 1009.1
20260505220441 24 301 4.8 9.7 0.00 0.00 0.00 44 1008.9
20260505215939 25 345 4.8 11.3 0.00 0.00 0.00 43 1008.9
20260505215437 25 237 3.2 4.8 0.00 0.00 0.00 43 1008.9
20260505214935 25 192 1.6 6.4 0.00 0.00 0.00 41 1008.7
20260505214432 25 189 3.2 8.0 0.00 0.00 0.00 41 1008.8
20260505213929 25 219 3.2 6.4 0.00 0.00 0.00 41 1008.6
20260505213427 25 229 0.0 4.8 0.00 0.00 0.00 41 1008.6
20260505212923 25 188 3.2 8.0 0.00 0.00 0.00 40 1008.3
20260505212420 26 207 3.2 12.9 0.00 0.00 0.00 40 1008.3
20260505211916 26 222 4.8 14.5 0.00 0.00 0.00 40 1008.2
20260505211414 26 262 6.4 16.1 0.00 0.00 0.00 38 1008.2
20260505210910 26 216 8.0 17.7 0.00 0.00 0.00 38 1008.2
20260505210408 26 214 3.2 9.7 0.00 0.00 0.00 38 1008.2
20260505205904 27 225 9.7 14.5 0.00 0.00 0.00 37 1008.1
20260505205403 27 203 6.4 14.5 0.00 0.00 0.00 35 1008.2
20260505204859 27 315 1.6 17.7 0.00 0.00 0.00 39 1008.3
20260505204357 26 230 6.4 25.7 0.00 0.00 0.00 36 1008.4
20260505203854 26 200 1.6 19.3 0.00 0.00 0.00 39 1008.5
20260505203350 26 233 6.4 16.1 0.00 0.00 0.00 37 1008.4
20260505202847 26 248 1.6 11.3 0.00 0.00 0.00 39 1008.6
20260505202343 26 204 4.8 9.7 0.00 0.00 0.00 37 1008.4
20260505201840 26 218 9.7 24.1 0.00 0.00 0.00 35 1008.3
20260505201337 26 216 9.7 19.3 0.00 0.00 0.00 36 1008.6
20260505200835 26 213 8.0 24.1 0.00 0.00 0.00 36 1008.2
20260505200332 26 217 17.7 20.9 0.00 0.00 0.00 34 1008.4
20260505195828 26 205 20.9 30.6 0.00 0.00 0.00 35 1008.5
20260505195325 26 213 17.7 24.1 0.00 0.00 0.00 35 1008.5
20260505194822 26 214 16.1 27.4 0.00 0.00 0.00 35 1008.5
20260505194319 27 219 22.5 27.4 0.00 0.00 0.00 35 1008.5
20260505193814 27 221 14.5 32.2 0.00 0.00 0.00 34 1008.3
20260505193312 27 209 11.3 20.9 0.00 0.00 0.00 36 1008.4
20260505192810 26 215 20.9 30.6 0.00 0.00 0.00 36 1008.5
20260505192310 26 207 25.7 45.1 0.00 0.00 0.00 36 1008.3
20260505191806 27 195 20.9 37.0 0.00 0.00 0.00 36 1008.4
20260505191304 27 209 20.9 41.8 0.00 0.00 0.00 35 1008.2
20260505190800 27 215 24.1 25.7 0.00 0.00 0.00 37 1008.1
20260505190255 27 225 22.5 32.2 0.00 0.00 0.00 37 1008.6
20260505185752 27 213 27.4 30.6 0.00 0.00 0.00 36 1008.3
20260505185248 28 227 35.4 46.7 0.00 0.00 0.00 34 1008.6
20260505184744 27 229 19.3 37.0 0.00 0.00 0.00 36 1008.7
20260505184242 28 204 16.1 33.8 0.00 0.00 0.00 37 1008.8
20260505183738 27 212 14.5 30.6 0.00 0.00 0.00 38 1008.8
20260505183236 27 167 14.5 27.4 0.00 0.00 0.00 39 1008.8
20260505182732 28 193 12.9 20.9 0.00 0.00 0.00 40 1008.9
20260505182229 27 202 22.5 29.0 0.00 0.00 0.00 38 1009.1
20260505181725 27 205 9.7 33.8 0.00 0.00 0.00 40 1009.4
20260505181223 26 212 12.9 27.4 0.00 0.00 0.00 41 1009.4
20260505180719 27 199 16.1 33.8 0.00 0.00 0.00 39 1009.5
20260505180216 27 207 16.1 17.7 0.00 0.00 0.00 39 1009.4
20260505175712 27 168 8.0 22.5 0.00 0.00 0.00 39 1009.6
20260505175209 26 189 22.5 25.7 0.00 0.00 0.00 39 1009.8
20260505174705 26 191 14.5 30.6 0.00 0.00 0.00 40 1009.7
20260505174202 26 207 8.0 19.3 0.00 0.00 0.00 41 1009.9
20260505173658 26 211 14.5 25.7 0.00 0.00 0.00 41 1009.8
20260505173155 26 200 19.3 25.7 0.00 0.00 0.00 42 1009.7
20260505172652 26 235 17.7 24.1 0.00 0.00 0.00 41 1009.5
20260505172149 26 202 9.7 19.3 0.00 0.00 0.00 44 1009.8
20260505171649 26 235 16.1 27.4 0.00 0.00 0.00 42 1009.8
20260505171146 26 189 8.0 27.4 0.00 0.00 0.00 42 1009.6
20260505170643 26 233 17.7 25.7 0.00 0.00 0.00 40 1009.8
20260505170140 26 216 12.9 27.4 0.00 0.00 0.00 43 1009.7
20260505165640 26 223 20.9 24.1 0.00 0.00 0.00 41 1010.0
20260505165137 26 197 17.7 35.4 0.00 0.00 0.00 42 1009.9
20260505164632 26 200 19.3 35.4 0.00 0.00 0.00 42 1010.0
20260505164130 26 204 22.5 32.2 0.00 0.00 0.00 41 1010.3
20260505163628 26 202 19.3 27.4 0.00 0.00 0.00 42 1010.2
20260505163125 25 215 16.1 24.1 0.00 0.00 0.00 44 1010.6
20260505162623 26 197 25.7 30.6 0.00 0.00 0.00 43 1010.4
20260505162120 25 200 14.5 37.0 0.00 0.00 0.00 43 1010.6
20260505161617 26 244 6.4 12.9 0.00 0.00 0.00 45 1010.6
20260505161114 25 190 11.3 32.2 0.00 0.00 0.00 43 1010.6
20260505160612 25 207 14.5 32.2 0.00 0.00 0.00 44 1010.7
20260505160109 26 182 14.5 32.2 0.00 0.00 0.00 44 1010.8
20260505153049 25 222 17.7 20.9 0.00 0.00 0.00 46 1011.3
20260505152545 24 216 14.5 30.6 0.00 0.00 0.00 48 1011.0
20260505152041 24 213 14.5 25.7 0.00 0.00 0.00 49 1011.2
20260505151536 24 204 14.5 19.3 0.00 0.00 0.00 49 1011.3
20260505151034 24 212 19.3 25.7 0.00 0.00 0.00 48 1011.2
20260505150530 23 245 8.0 29.0 0.00 0.00 0.00 50 1011.2
20260505140455 22 191 9.7 20.9 0.00 0.00 0.00 55 1011.1
20260505124909 20 163 3.2 8.0 0.00 0.00 0.00 62 1011.6
20260505124406 19 163 1.6 6.4 0.00 0.00 0.00 62 1011.8
20260505123902 18 196 6.4 14.5 0.00 0.00 0.00 63 1011.7
20260505123359 18 132 3.2 4.8 0.00 0.00 0.00 67 1011.9
20260505122854 18 177 4.8 4.8 0.00 0.00 0.00 68 1011.9
20260505122352 18 162 1.6 3.2 0.00 0.00 0.00 68 1012.0
20260505121848 18 94 1.6 4.8 0.00 0.00 0.00 67 1012.0
20260505121346 18 153 3.2 6.4 0.00 0.00 0.00 67 1011.9
20260505120842 18 154 3.2 4.8 0.00 0.00 0.00 66 1011.9
20260505120338 17 192 3.2 3.2 0.00 0.00 0.00 67 1012.0
20260505115837 17 122 3.2 9.7 0.00 0.00 0.00 68 1012.1
20260505115334 17 156 0.0 4.8 0.00 0.00 0.00 69 1011.8
20260505114832 17 164 1.6 3.2 0.00 0.00 0.00 69 1011.8
20260505114328 17 132 0.0 4.8 0.00 0.00 0.00 69 1011.7
20260505113825 16 138 3.2 4.8 0.00 0.00 0.00 70 1011.7
20260505113321 16 145 3.2 6.4 0.00 0.00 0.00 72 1011.6
20260505112817 15 168 0.0 4.8 0.00 0.00 0.00 77 1011.7
20260505112314 12 116 3.2 3.2 0.00 0.00 0.00 85 1011.6
20260505111810 12 89 0.0 3.2 0.00 0.00 0.00 83 1011.7
20260505111306 12 97 3.2 3.2 0.00 0.00 0.00 82 1011.6
20260505110802 12 23 0.0 1.6 0.00 0.00 0.00 82 1011.6
20260505110300 12 138 3.2 4.8 0.00 0.00 0.00 83 1011.4
20260505101733 15 95 3.2 4.8 0.00 0.00 0.00 70 1011.3
20260505101229 15 117 3.2 6.4 0.00 0.00 0.00 70 1011.4
20260505100726 15 172 4.8 6.4 0.00 0.00 0.00 70 1011.2
20260505100223 15 184 4.8 4.8 0.00 0.00 0.00 70 1011.0
20260505095723 16 181 6.4 9.7 0.00 0.00 0.00 69 1011.1
20260505095222 15 185 4.8 8.0 0.00 0.00 0.00 70 1011.3
20260505094717 15 158 3.2 6.4 0.00 0.00 0.00 71 1011.1
20260505094214 15 162 3.2 4.8 0.00 0.00 0.00 72 1010.8
20260505093710 15 142 3.2 4.8 0.00 0.00 0.00 72 1010.9
20260505093208 15 161 3.2 4.8 0.00 0.00 0.00 72 1010.9
20260505092704 15 161 3.2 4.8 0.00 0.00 0.00 71 1010.7
20260505092203 15 182 1.6 4.8 0.00 0.00 0.00 73 1010.7
20260505091700 13 0 0.0 3.2 0.00 0.00 0.00 75 1010.7
20260505091158 15 44 0.0 1.6 0.00 0.00 0.00 73 1010.6
20260505090655 15 89 1.6 4.8 0.00 0.00 0.00 72 1010.6
20260505090153 15 131 3.2 4.8 0.00 0.00 0.00 72 1010.5
20260505085650 15 145 3.2 3.2 0.00 0.00 0.00 72 1010.5
20260505085149 15 172 3.2 3.2 0.00 0.00 0.00 71 1010.7
20260505084646 15 146 1.6 1.6 0.00 0.00 0.00 72 1010.7
20260505084144 15 89 1.6 3.2 0.00 0.00 0.00 68 1010.7
20260505083641 16 160 1.6 3.2 0.00 0.00 0.00 67 1010.9
20260505083137 15 156 3.2 3.2 0.00 0.00 0.00 67 1010.8
20260505082633 16 143 3.2 4.8 0.00 0.00 0.00 67 1010.8
20260505082131 16 169 3.2 6.4 0.00 0.00 0.00 66 1010.6
20260505081626 16 161 4.8 4.8 0.00 0.00 0.00 65 1010.8